Precipitable_Water
1.29 1.56 1.80 1.62 1.57 1.57 1.43 1.40 1.39 1.36 1.37 1.39 1.40 1.42 1.42 1.44 1.46 1.52 1.53 1.61 1.62 1.62 1.60 1.56 1.52 1.47 1.41 1.36 1.36 1.42 1.44 1.43 1.38 1.12 1.05 1.19 1.30 1.29 1.27 1.22 1.18 1.13 1.03
1.41 1.59 1.55 1.49 1.41 1.32 1.27 1.25 1.25 1.21 1.21 1.22 1.24 1.25 1.26 1.29 1.33 1.43 1.56 1.61 1.57 1.56 1.52 1.52 1.54 1.46 1.39 1.35 1.33 1.33 1.37 1.40 1.35 1.35 1.14 1.02 1.01 1.15 1.20 1.28 1.23 1.28 1.25
1.34 1.45 1.38 1.34 1.25 1.17 1.13 1.12 1.09 1.03 1.03 1.03 1.02 1.02 1.03 1.07 1.10 1.11 1.17 1.26 1.34 1.35 1.35 1.36 1.39 1.36 1.35 1.30 1.31 1.35 1.35 1.29 1.31 1.29 1.32 1.19 1.09 1.01 1.03 1.20 1.25 1.26 1.44
1.26 1.27 1.23 1.17 1.07 0.98 0.89 0.82 0.78 0.76 0.73 0.71 0.70 0.71 0.73 0.75 0.78 0.81 0.84 0.90 1.00 1.09 1.17 1.21 1.23 1.27 1.31 1.29 1.29 1.33 1.32 1.32 1.28 1.27 1.32 1.33 1.19 1.06 1.12 1.25 1.38 1.57 1.52
1.12 1.13 1.12 1.04 0.93 0.80 0.68 0.56 0.54 0.54 0.55 0.55 0.56 0.57 0.57 0.57 0.60 0.60 0.61 0.64 0.69 0.74 0.80 0.84 0.91 0.98 1.03 1.09 1.19 1.27 1.30 1.31 1.25 1.21 1.27 1.28 1.29 1.22 1.10 1.19 1.27 1.38 1.50
1.00 1.03 1.01 0.90 0.75 0.55 0.52 0.54 0.56 0.58 0.59 0.59 0.60 0.59 0.59 0.61 0.62 0.60 0.59 0.58 0.56 0.56 0.58 0.61 0.66 0.70 0.75 0.82 0.93 1.05 1.12 1.13 1.14 1.20 1.17 1.18 1.21 1.23 1.22 1.19 1.21 1.25 1.35
0.91 0.94 0.86 0.72 0.58 0.54 0.53 0.57 0.57 0.60 0.60 0.61 0.61 0.61 0.62 0.63 0.65 0.65 0.65 0.66 0.67 0.67 0.65 0.66 0.64 0.61 0.62 0.63 0.66 0.69 0.73 0.80 0.89 1.00 1.08 1.12 1.17 1.13 1.16 1.22 1.26 1.31 1.29
0.76 0.71 0.63 0.57 0.55 0.53 0.55 0.57 0.59 0.60 0.61 0.60 0.60 0.59 0.59 0.59 0.61 0.62 0.65 0.66 0.68 0.69 0.70 0.71 0.69 0.66 0.64 0.64 0.62 0.59 0.55 0.54 0.62 0.75 0.87 0.97 1.08 1.09 1.13 1.17 1.20 1.23 1.26
0.70 0.60 0.53 0.50 0.49 0.51 0.54 0.56 0.57 0.58 0.58 0.58 0.57 0.56 0.54 0.54 0.55 0.57 0.59 0.62 0.63 0.64 0.66 0.66 0.66 0.65 0.63 0.62 0.62 0.61 0.59 0.56 0.58 0.61 0.64 0.75 0.88 0.95 1.06 1.11 1.19 1.26 1.25
0.62 0.54 0.51 0.50 0.49 0.49 0.52 0.54 0.55 0.55 0.55 0.55 0.53 0.51 0.48 0.49 0.49 0.51 0.53 0.54 0.56 0.56 0.57 0.58 0.59 0.58 0.56 0.55 0.55 0.55 0.52 0.51 0.54 0.57 0.61 0.68 0.72 0.80 0.87 0.97 1.02 1.07 1.20
0.58 0.53 0.52 0.49 0.48 0.50 0.50 0.50 0.53 0.52 0.53 0.51 0.49 0.46 0.45 0.45 0.47 0.48 0.48 0.49 0.50 0.49 0.50 0.50 0.50 0.48 0.45 0.46 0.46 0.45 0.45 0.49 0.50 0.51 0.54 0.59 0.64 0.74 0.80 0.80 0.81 0.84 0.89
0.52 0.51 0.52 0.48 0.47 0.49 0.48 0.51 0.52 0.53 0.53 0.51 0.46 0.44 0.44 0.46 0.47 0.48 0.49 0.48 0.49 0.49 0.49 0.49 0.48 0.47 0.47 0.46 0.46 0.45 0.46 0.47 0.48 0.48 0.50 0.52 0.56 0.62 0.70 0.74 0.75 0.76 0.78
0.52 0.53 0.50 0.48 0.48 0.48 0.48 0.50 0.52 0.54 0.51 0.47 0.45 0.46 0.47 0.48 0.50 0.50 0.50 0.50 0.50 0.49 0.49 0.47 0.44 0.44 0.45 0.44 0.43 0.44 0.47 0.50 0.51 0.52 0.56 0.57 0.57 0.58 0.62 0.67 0.75 0.78 0.79
0.50 0.51 0.51 0.50 0.49 0.49 0.49 0.49 0.52 0.51 0.49 0.46 0.46 0.46 0.45 0.46 0.48 0.48 0.47 0.47 0.47 0.47 0.45 0.43 0.39 0.35 0.34 0.34 0.34 0.38 0.46 0.51 0.53 0.55 0.63 0.65 0.69 0.74 0.75 0.74 0.73 0.73 0.72
0.48 0.51 0.52 0.52 0.50 0.49 0.47 0.48 0.51 0.50 0.50 0.48 0.46 0.45 0.44 0.43 0.43 0.43 0.43 0.42 0.41 0.42 0.37 0.33 0.31 0.28 0.27 0.26 0.25 0.29 0.38 0.47 0.52 0.57 0.64 0.63 0.65 0.68 0.71 0.73 0.74 0.73 0.74
0.50 0.52 0.53 0.51 0.50 0.48 0.47 0.49 0.51 0.52 0.51 0.48 0.46 0.43 0.41 0.39 0.37 0.37 0.36 0.33 0.30 0.29 0.25 0.22 0.22 0.22 0.23 0.24 0.23 0.28 0.36 0.44 0.49 0.53 0.56 0.59 0.61 0.65 0.68 0.71 0.72 0.72 0.74
0.51 0.53 0.52 0.49 0.49 0.47 0.47 0.49 0.51 0.53 0.50 0.47 0.46 0.44 0.40 0.37 0.35 0.33 0.30 0.27 0.25 0.24 0.22 0.20 0.20 0.20 0.21 0.22 0.22 0.28 0.38 0.45 0.49 0.50 0.53 0.55 0.56 0.55 0.58 0.60 0.62 0.66 0.68
0.50 0.51 0.50 0.47 0.48 0.47 0.47 0.49 0.50 0.50 0.50 0.49 0.48 0.45 0.41 0.37 0.35 0.31 0.27 0.25 0.24 0.24 0.22 0.21 0.21 0.20 0.21 0.22 0.23 0.29 0.38 0.46 0.48 0.50 0.53 0.54 0.53 0.52 0.53 0.53 0.55 0.59 0.62
0.48 0.49 0.47 0.48 0.46 0.46 0.47 0.49 0.49 0.48 0.49 0.50 0.50 0.47 0.42 0.39 0.37 0.33 0.28 0.26 0.25 0.25 0.25 0.24 0.24 0.24 0.23 0.23 0.23 0.31 0.40 0.46 0.50 0.51 0.51 0.53 0.54 0.51 0.47 0.45 0.45 0.49 0.52
0.48 0.49 0.48 0.47 0.46 0.47 0.50 0.48 0.46 0.46 0.48 0.50 0.49 0.48 0.45 0.42 0.41 0.38 0.33 0.30 0.29 0.28 0.28 0.28 0.28 0.28 0.28 0.27 0.26 0.30 0.40 0.48 0.49 0.50 0.51 0.51 0.50 0.48 0.44 0.43 0.44 0.43 0.44
0.46 0.46 0.46 0.45 0.46 0.49 0.47 0.42 0.40 0.39 0.44 0.46 0.48 0.49 0.48 0.46 0.44 0.43 0.40 0.35 0.33 0.31 0.30 0.31 0.31 0.31 0.31 0.32 0.30 0.28 0.37 0.44 0.46 0.47 0.47 0.46 0.42 0.39 0.38 0.37 0.34 0.34 0.35
0.41 0.45 0.46 0.46 0.48 0.49 0.46 0.46 0.44 0.43 0.44 0.45 0.47 0.49 0.50 0.48 0.47 0.45 0.44 0.42 0.40 0.37 0.36 0.35 0.35 0.33 0.34 0.36 0.32 0.32 0.25 0.30 0.39 0.42 0.45 0.38 0.36 0.43 0.41 0.36 0.34 0.33 0.34
0.40 0.44 0.46 0.47 0.49 0.48 0.47 0.47 0.47 0.48 0.47 0.46 0.48 0.49 0.49 0.49 0.48 0.49 0.48 0.47 0.46 0.47 0.43 0.41 0.40 0.38 0.36 0.40 0.41 0.37 0.30 0.27 0.32 0.37 0.42 0.43 0.44 0.41 0.40 0.38 0.40 0.38 0.39
0.43 0.47 0.47 0.48 0.47 0.47 0.50 0.49 0.50 0.48 0.46 0.51 0.53 0.55 0.55 0.54 0.51 0.51 0.51 0.50 0.49 0.49 0.49 0.49 0.44 0.44 0.43 0.40 0.44 0.47 0.46 0.45 0.40 0.38 0.44 0.47 0.50 0.45 0.44 0.44 0.46 0.44 0.42
0.45 0.45 0.46 0.45 0.44 0.45 0.48 0.49 0.47 0.44 0.46 0.49 0.50 0.52 0.55 0.57 0.59 0.59 0.58 0.55 0.53 0.53 0.53 0.53 0.49 0.48 0.49 0.47 0.48 0.49 0.49 0.50 0.51 0.46 0.42 0.45 0.49 0.50 0.48 0.47 0.45 0.47 0.46
0.41 0.39 0.39 0.38 0.39 0.41 0.42 0.44 0.44 0.44 0.44 0.45 0.47 0.50 0.55 0.60 0.62 0.62 0.61 0.60 0.58 0.58 0.59 0.58 0.57 0.57 0.56 0.55 0.54 0.53 0.51 0.47 0.47 0.48 0.45 0.47 0.45 0.49 0.51 0.50 0.49 0.50 0.49
Wind_Speed
3 3 4 3 4 4 5 5 6 7 7 8 8 9 9 9 9 9 9 9 9 9 9 9 9 9 9 10 10 10 9 9 9 9 9 9 9 9 9 9 9 9 9
4 4 2 3 3 4 5 6 6 7 8 9 9 10 10 10 10 10 9 9 9 10 10 10 10 11 11 11 11 11 11 12 12 12 12 12 12 12 11 11 10 10 10
4 2 2 2 3 4 5 6 7 8 9 9 10 11 11 12 12 12 11 11 11 11 11 12 12 12 12 12 13 13 13 13 13 13 13 13 13 13 13 13 13 13 12
4 2 1 2 3 5 6 7 8 9 10 11 11 12 13 13 13 13 13 13 13 13 13 13 13 13 14 14 14 14 14 14 14 14 14 14 14 14 14 15 15 16 16
3 1 1 2 4 5 6 7 8 10 11 12 13 13 14 14 14 14 14 14 14 15 15 15 16 16 16 16 16 16 16 16 16 16 16 16 16 16 16 16 16 17 17
3 1 1 3 5 5 7 8 9 11 11 13 14 14 14 15 15 15 15 15 16 16 17 17 17 18 18 18 18 19 19 19 19 18 18 18 18 18 18 18 18 18 17
3 1 2 4 4 6 7 9 10 11 12 14 15 15 15 15 15 16 16 17 17 17 17 18 18 18 18 19 19 20 20 20 20 20 20 20 20 20 20 20 20 20 20
3 2 3 4 5 6 8 9 11 12 14 15 16 16 16 16 17 17 18 18 18 19 19 19 19 19 19 19 19 20 20 20 20 20 20 21 21 21 22 22 22 22 22
4 3 4 4 6 7 9 10 12 13 15 17 17 16 17 18 19 20 20 20 20 20 20 20 20 20 20 20 20 20 20 20 19 19 20 20 21 21 22 22 22 22 23
5 4 5 6 7 8 10 11 13 14 16 18 17 18 20 21 21 22 22 22 22 21 21 21 21 21 21 21 21 21 21 20 19 19 19 19 20 20 20 20 21 21 22
6 6 6 7 8 9 11 12 13 15 18 18 19 20 22 22 23 23 23 22 22 22 21 21 21 21 20 20 20 19 19 18 19 19 18 18 18 17 17 17 17 19 20
8 7 7 8 9 11 12 13 14 17 18 19 20 22 22 22 22 23 23 22 21 21 20 20 19 18 18 18 18 17 16 16 14 14 14 15 15 15 15 15 15 16 16
9 9 9 9 11 12 13 14 15 17 19 19 21 22 21 21 23 22 22 21 19 18 17 17 16 16 16 15 13 13 13 12 12 12 12 13 13 13 13 13 13 13 14
10 10 10 11 12 13 14 14 16 18 19 20 21 21 21 21 21 20 19 17 15 14 13 13 14 13 12 12 12 11 11 10 11 11 11 11 11 10 11 11 12 13 13
11 11 11 12 13 14 14 15 17 19 19 19 20 20 20 20 19 18 17 14 13 12 12 12 11 11 11 11 11 10 10 11 11 11 10 10 11 11 11 12 12 13 13
13 12 13 13 14 15 15 16 18 19 19 19 19 19 19 18 17 17 15 13 12 12 12 11 11 11 11 11 11 10 11 11 11 11 11 11 11 12 12 12 13 13 14
14 14 14 15 15 15 16 18 19 20 19 19 19 19 18 17 16 16 14 13 13 11 11 11 11 11 11 11 11 12 12 12 12 12 12 13 13 13 14 14 15 15 15
16 16 16 16 16 17 18 19 20 20 20 19 19 19 19 18 17 16 15 13 13 12 13 13 12 13 13 13 13 13 14 14 14 14 14 15 15 15 16 16 16 17 17
17 17 17 17 18 18 19 21 21 21 20 20 20 20 20 19 17 17 16 15 14 14 14 14 14 14 15 15 15 16 16 16 16 16 16 16 17 17 18 19 19 19 20
18 18 18 19 19 20 21 21 21 21 21 21 21 21 21 20 19 18 17 16 16 16 16 16 16 16 16 17 17 18 18 18 18 18 18 19 20 20 21 21 22 22 23
20 20 20 20 21 21 22 22 22 23 23 23 22 22 22 21 20 19 18 17 17 17 17 17 17 18 18 19 19 19 19 19 19 20 21 21 22 23 23 24 24 25 26
21 21 21 21 22 22 22 22 23 24 24 24 24 24 23 22 21 20 19 18 17 17 18 18 18 18 19 19 20 20 20 20 20 22 24 24 24 25 25 26 27 28 28
21 21 22 22 23 23 23 24 25 25 26 25 25 24 23 23 22 21 20 20 19 19 19 20 20 21 21 21 21 21 21 21 24 23 25 25 26 27 28 28 29 29 30
21 21 22 23 23 24 25 26 26 26 26 26 26 25 24 24 23 23 22 22 21 21 21 22 22 23 23 24 24 23 24 25 24 24 25 26 28 29 30 30 30 31 31
20 21 22 23 24 25 26 26 27 27 27 27 26 26 25 24 23 23 23 23 23 23 24 24 24 25 25 26 25 26 26 26 26 26 27 28 30 31 31 31 31 32 31
19 20 21 22 23 24 26 26 27 27 27 27 26 25 24 23 23 23 23 23 24 24 25 26 26 27 27 27 28 28 28 28 28 29 30 32 33 33 33 34 34 33 34
Wind_Direction
135 109 94 68 52 32 17 11 5 359 353 349 346 343 341 338 334 329 324 318 315 313 311 310 308 307 305 303 300 298 297 298 296 292 288 284 283 284 283 283 279 273 273
142 121 81 54 29 15 7 1 355 351 348 345 341 338 336 333 330 329 330 326 317 313 307 305 304 304 302 300 298 295 293 290 289 287 285 282 279 277 278 278 276 274 273
157 140 62 31 13 4 357 352 348 347 345 342 338 334 331 328 324 321 317 314 313 312 308 305 302 301 299 298 295 293 292 290 288 286 284 281 279 277 275 274 272 271 271
167 173 27 10 0 352 349 349 347 345 341 337 333 330 328 325 322 318 314 312 309 307 305 304 302 301 300 298 295 292 291 289 287 286 283 281 280 278 276 274 271 270 269
173 184 328 344 344 344 347 346 343 340 338 335 333 330 326 323 321 318 313 310 308 305 302 300 299 297 296 294 292 291 289 288 287 285 282 281 280 278 277 275 273 273 273
183 203 315 328 335 340 342 341 340 340 338 336 333 330 326 323 320 317 313 310 307 303 301 299 298 296 294 293 291 288 287 285 284 282 281 279 278 277 277 276 275 273 271
200 249 317 329 335 337 338 339 338 337 336 334 332 329 326 323 321 317 313 310 308 305 301 299 298 297 296 294 292 290 288 286 283 281 280 279 278 278 277 276 274 273 271
221 263 305 323 331 334 334 334 334 334 334 332 330 328 325 323 319 316 312 309 306 303 301 299 297 297 296 296 295 293 291 289 286 283 282 280 279 279 277 276 274 273 271
235 268 298 312 322 327 329 331 331 332 332 330 328 326 324 321 317 314 310 307 303 300 299 297 296 296 296 296 295 294 293 291 288 286 285 283 284 281 279 276 276 273 271
244 270 291 306 315 320 323 327 328 330 329 329 329 326 323 320 317 313 309 306 302 300 297 296 295 295 295 295 294 294 291 288 286 285 284 284 285 284 282 279 276 274 273
251 272 289 301 310 315 319 322 325 327 328 328 325 325 323 320 318 314 311 307 303 300 298 297 296 296 297 296 295 294 292 289 289 286 285 286 285 285 284 283 280 277 275
249 269 285 297 305 311 315 318 322 325 327 326 325 325 324 323 322 319 314 308 304 301 299 299 298 299 299 298 296 295 294 293 291 290 288 289 287 285 285 284 283 282 280
252 268 282 293 303 308 312 315 319 323 325 325 326 327 326 327 326 325 321 314 307 305 303 302 303 303 303 302 301 300 300 298 295 293 293 294 291 289 287 286 286 286 284
253 266 279 292 300 306 309 313 317 321 324 324 326 328 327 328 330 331 330 327 321 317 314 312 310 310 310 307 306 303 302 301 299 296 295 296 296 294 292 290 289 289 288
256 266 278 291 298 303 306 311 316 320 322 324 326 327 327 328 331 332 333 332 330 326 322 319 316 314 312 310 308 303 301 301 300 296 293 295 293 292 292 291 290 290 289
258 266 278 289 296 300 304 308 314 318 320 322 324 327 327 327 329 331 331 332 331 328 325 322 318 315 313 310 307 302 299 299 297 295 292 291 293 293 292 292 291 291 290
260 268 278 287 293 297 301 306 310 314 315 317 319 322 324 324 325 327 328 328 328 328 326 322 317 313 310 308 304 300 297 295 294 291 288 288 289 292 290 290 289 289 290
262 268 277 285 290 295 299 304 307 309 310 311 314 315 316 314 317 319 319 320 321 320 320 318 315 311 306 305 301 298 295 291 290 288 287 286 287 288 289 290 290 289 288
264 269 276 282 288 293 298 302 304 306 306 307 309 309 309 306 305 308 309 309 310 311 312 312 311 309 305 303 299 296 293 290 287 286 285 285 286 286 287 287 287 287 287
266 269 275 281 287 292 296 299 300 302 303 304 303 305 305 302 298 298 300 302 302 302 304 306 307 307 304 303 299 296 293 289 286 284 284 285 286 286 286 286 285 284 285
266 269 274 280 285 291 294 296 298 300 301 301 300 300 301 299 293 292 294 298 299 299 300 302 303 303 302 304 300 296 292 288 285 284 285 285 285 286 285 285 285 284 284
267 269 274 279 285 289 291 293 296 298 298 298 298 296 296 295 291 287 289 292 295 297 299 300 302 302 301 304 302 298 295 290 287 286 287 285 286 286 286 286 285 285 285
267 270 274 280 285 288 289 292 295 296 296 297 296 295 293 292 289 283 284 287 290 293 296 297 299 300 301 300 301 298 295 292 294 288 288 287 287 287 287 287 286 286 285
267 271 276 281 284 287 289 292 294 295 295 296 295 293 291 290 288 283 281 283 286 290 292 294 296 297 298 298 298 295 294 292 292 291 290 289 289 288 288 287 286 285 285
269 273 278 282 286 288 290 292 293 294 294 293 293 291 290 289 287 284 281 281 284 287 290 293 294 295 296 296 295 295 293 291 289 288 291 290 290 289 288 287 286 285 284
270 275 280 285 288 291 292 293 293 293 293 292 292 290 289 288 288 286 283 283 284 287 290 292 293 294 294 294 293 292 290 290 289 289 290 291 291 290 289 288 287 285 284